Temp
73 72 71 73 72 71 71 72 74 75 74 75 75 75 74 73 74 74 73 73 72 72
74 73 73 73 73 73 73 75 73 74 73 75 75 75 74 72 73 73 73 73 73 72
77 76 73 72 72 73 75 73 73 73 75 75 76 75 73 73 73 73 72 73 72 72
76 77 75 75 73 74 74 73 73 73 74 74 74 74 73 72 73 72 72 73 72 73
77 77 76 77 76 74 74 73 74 73 73 73 74 74 73 73 77 72 72 72 72 72
77 75 75 75 76 75 75 74 74 73 73 73 73 73 73 74 74 73 73 72 72 73
74 74 75 75 74 74 73 74 74 73 74 74 75 75 74 73 72 73 75 73 73 73
75 74 74 73 73 73 73 73 72 73 73 73 74 76 73 73 73 72 73 73 74 74
73 72 74 72 71 70 71 72 72 71 70 72 76 72 72 74 73 74 75 74 73 74
69 67 66 67 68 69 69 70 70 70 71 72 73 70 70 71 73 73 73 74 74 74
65 64 63 63 63 63 63 64 65 68 70 70 72 67 66 68 70 71 72 74 74 73
61 60 59 57 57 58 58 58 60 61 63 64 68 64 64 65 68 69 70 73 73 73
58 55 53 52 52 53 53 55 57 57 59 60 61 62 62 62 69 69 69 70 71 67
54 52 51 50 51 52 53 53 52 53 55 56 59 60 59 59 64 70 71 70 70 71
MSLP
1014.36 1014.82 1015.08 1015.19 1015.55 1015.77 1015.78 1015.53 1015.48 1015.73 1015.76 1015.85 1015.99 1016.15 1016.33 1016.87 1017.02 1017.18 1017.42 1017.66 1017.86 1017.85
1013.85 1014.27 1014.57 1014.76 1014.88 1015.02 1015.11 1015.21 1015.33 1015.36 1015.47 1015.46 1015.50 1015.69 1016.13 1016.50 1016.73 1016.92 1017.12 1017.14 1017.16 1017.30
1013.19 1013.52 1013.90 1014.22 1014.41 1014.54 1014.62 1014.86 1014.94 1014.93 1015.00 1014.95 1015.07 1015.33 1015.66 1015.99 1016.21 1016.55 1016.75 1016.86 1016.92 1016.94
1012.71 1013.07 1013.47 1013.77 1013.92 1014.12 1014.24 1014.31 1014.51 1014.58 1014.62 1014.62 1014.75 1014.90 1015.25 1015.54 1015.71 1016.04 1016.21 1016.36 1016.50 1016.48
1012.22 1012.69 1013.10 1013.33 1013.58 1013.77 1014.00 1014.15 1014.24 1014.20 1014.29 1014.43 1014.43 1014.51 1014.80 1015.15 1015.31 1015.60 1015.80 1015.87 1016.02 1016.10
1011.79 1012.16 1012.57 1013.04 1013.08 1013.34 1013.74 1013.80 1013.95 1014.20 1014.26 1014.12 1014.10 1014.20 1014.22 1014.39 1014.69 1014.88 1014.98 1015.23 1015.49 1015.51
1011.39 1011.68 1012.07 1012.12 1012.31 1012.99 1013.51 1013.55 1013.53 1013.66 1013.58 1013.57 1013.58 1013.80 1013.76 1013.79 1014.04 1014.18 1014.19 1014.40 1014.65 1014.85
1010.75 1011.06 1011.52 1011.64 1011.63 1012.55 1013.11 1013.39 1013.24 1013.69 1013.27 1013.02 1012.88 1012.78 1012.98 1013.11 1013.22 1013.58 1013.76 1013.67 1013.72 1013.94
1010.75 1011.09 1011.49 1011.82 1012.13 1012.18 1012.36 1012.49 1012.69 1012.60 1013.01 1011.93 1012.11 1011.94 1011.94 1012.15 1012.39 1012.31 1012.49 1012.88 1013.11 1013.22
1011.20 1011.63 1012.09 1012.28 1012.29 1012.45 1012.52 1012.32 1012.57 1012.86 1012.49 1012.00 1011.47 1011.11 1011.09 1011.15 1011.56 1011.70 1011.73 1011.75 1011.99 1012.39
1012.00 1012.15 1012.49 1012.66 1012.64 1012.76 1012.96 1013.00 1012.81 1012.36 1011.92 1011.53 1011.04 1010.81 1010.77 1010.71 1011.02 1011.24 1011.17 1011.10 1011.09 1011.33
1012.66 1012.90 1013.16 1013.42 1013.53 1013.39 1013.16 1013.02 1012.91 1012.66 1012.32 1011.90 1011.12 1010.77 1010.49 1010.48 1010.57 1010.45 1010.23 1010.18 1010.30 1010.41
1012.99 1013.45 1013.97 1014.25 1014.24 1014.14 1013.95 1013.47 1012.94 1012.22 1011.87 1011.49 1011.03 1010.62 1010.32 1010.18 1010.00 1009.67 1009.43 1009.42 1009.34 1009.50
1013.92 1014.31 1014.60 1014.67 1014.61 1014.44 1014.04 1013.62 1013.19 1012.49 1011.66 1011.02 1010.50 1010.00 1009.85 1009.76 1009.54 1008.91 1008.49 1008.45 1008.53 1008.66
Wind_Speed
8 6 5 6 5 7 6 5 5 6 6 7 7 6 6 4 4 5 4 6 5 4
9 8 8 7 6 6 6 6 7 6 7 8 8 7 7 5 6 5 5 6 5 4
12 9 7 6 8 7 8 7 6 8 7 7 9 7 7 5 5 6 5 4 5 4
11 11 8 8 7 7 7 7 8 7 7 8 8 7 7 7 7 7 6 5 6 7
10 10 10 12 9 7 8 7 8 7 7 8 9 8 8 8 7 8 7 7 6 7
12 11 11 10 10 8 7 7 6 6 8 9 9 8 8 9 9 9 9 8 7 8
11 11 12 11 9 1 7 9 7 9 10 9 9 9 7 7 7 8 9 9 9 8
12 11 8 7 6 14 14 14 6 14 9 9 9 8 8 8 8 8 9 8 9 9
6 4 2 2 2 4 8 13 12 23 19 12 12 12 15 12 9 11 12 11 9 9
8 8 6 5 6 5 3 3 8 11 10 13 11 14 16 16 10 9 10 11 10 9
6 7 7 7 7 6 4 4 5 6 6 7 8 11 12 12 7 8 11 11 11 11
6 7 7 8 8 7 8 7 5 5 7 8 10 10 12 9 7 9 13 12 12 12
9 10 8 6 7 5 6 8 8 10 8 8 11 11 12 7 7 10 9 10 11 15
9 8 6 6 5 6 8 9 9 12 11 11 11 12 12 11 8 8 9 9 8 8
Wind_Direction
196 197 195 185 189 204 202 207 195 207 209 217 211 206 188 197 201 195 216 243 224 243
203 197 199 203 193 196 207 210 214 217 208 210 205 200 191 198 212 201 221 236 248 239
211 212 199 194 205 205 210 213 211 212 220 208 206 196 188 202 215 202 224 227 237 251
205 215 214 212 211 215 225 219 216 218 213 208 208 198 193 206 213 206 223 235 227 236
206 207 216 224 221 206 219 232 232 224 216 215 214 209 198 208 214 212 214 223 233 237
209 208 215 218 224 224 233 238 225 221 226 220 217 216 217 209 209 212 213 212 220 233
209 211 216 218 213 84 309 264 236 229 221 213 213 223 223 207 207 216 219 215 216 220
212 216 213 220 198 188 223 259 324 313 276 238 220 211 208 212 208 212 230 224 220 222
209 219 224 242 260 188 212 200 185 227 254 268 257 224 218 215 220 216 217 229 231 234
72 70 43 33 53 33 352 257 217 231 246 255 241 234 229 224 227 225 228 226 225 226
55 58 37 28 17 6 357 337 309 302 286 269 261 250 236 231 231 236 239 231 223 219
61 59 44 27 7 358 345 335 317 297 289 288 286 278 255 243 232 234 235 232 226 219
61 54 41 19 3 350 338 320 318 305 289 280 283 283 283 279 256 237 236 231 227 223
53 57 34 18 5 348 346 331 320 308 304 289 267 266 252 259 266 257 236 230 230 227